Location: Seattle
(47.6064°N, 122.3308°W)
Time: 05:23:47
(UTC-07:00)

Tiros 1 - Pass Details

Date: 30 July 2021
Orbit: 630 x 663 km, 48.4° (Epoch: 25 September)

Event Time Altitude Azimuth Distance (km) Brightness Sun altitude
Rises 23:24:19 0° 280° (W) 2,969 11.1 -19.6°
Reaches altitude 10° 23:26:40 10° 281° (W) 2,052 10.2 -19.8°
Maximum altitude 23:31:25 89° 199° (SSW) 649 7.0 -20.2°
Enters shadow 23:33:18 36° 103° (ESE) 1,010 7.8 -20.3°
